Latest Coastal Weather Observations for Dum In Mirrie

IDD60701

Issued at 11:45 pm CST Monday 22 September 2014 (issued every 10 minutes, with the page automatically refreshed every 10 minutes)

About coastal observations | Map of coastal stations | Coastal observations for NT | Marine services | Other Formats
Station Details ID: 014277 Name: DUM IN MIRRIE AIRSTRIP Lat: -12.63 Lon: 130.37 Height: 3.5 m
Data from the previous 72 hours. | See also: Recent months at Dum In Mirrie
Date/Time
CST
Temp

°C
Wind Pressure Rain
since 9am
mm
Weather Cloud Vis
km
Sea
Height
m
Swell
Dir
 
Speed
knots
Gust
knots
hPa Trend Height
m
Period
s
Dir
22/11:30pm 26.7 WNW 4 7 1013.0 - 0.0 - - - - - - -
22/11:00pm 26.8 WNW 3 7 1013.3 - 0.0 - - - - - - -
22/10:30pm 26.9 WNW 3 6 1013.2 - 0.0 - - - - - - -
22/10:00pm 27.1 W 4 6 1013.2 - 0.0 - - - - - - -
22/09:30pm 27.2 W 4 9 1012.9 - 0.0 - - - - - - -
22/09:00pm 27.2 WNW 5 8 1012.6 - 0.0 - - - - - - -
22/08:30pm 27.3 W 4 7 1012.3 - 0.0 - - - - - - -
22/08:00pm 27.4 W 5 9 1012.0 - 0.0 - - - - - - -
22/07:30pm 27.5 W 5 10 1011.8 - 0.0 - - - - - - -
22/07:00pm 27.7 W 6 9 1011.6 - 0.0 - - - - - - -
22/06:30pm 28.1 W 6 10 1011.4 - 0.0 - - - - - - -
22/06:00pm 28.7 W 6 9 1011.1 - 0.0 - - - - - - -
22/05:30pm 29.4 WNW 5 8 1011.0 - 0.0 - - - - - - -
22/05:00pm 29.8 W 6 11 1011.0 - 0.0 - - - - - - -
22/04:30pm 30.3 W 6 11 1010.7 - 0.0 - - - - - - -
22/04:00pm 30.1 W 6 11 1010.6 - 0.0 - - - - - - -
22/03:30pm 30.9 WNW 6 10 1010.7 - 0.0 - - - - - - -
22/03:00pm 30.6 WNW 6 10 1011.1 - 0.0 - - - - - - -
22/02:30pm 30.4 WNW 6 11 1011.3 - 0.0 - - - - - - -
22/02:00pm 29.9 WNW 6 10 1011.7 - 0.0 - - - - - - -
22/01:30pm 30.2 NW 5 10 1012.0 - 0.0 - - - - - - -
22/01:00pm 30.3 WNW 5 8 1012.8 - 0.0 - - - - - - -
22/12:30pm 30.2 WNW 5 7 1013.3 - 0.0 - - - - - - -
22/12:00pm 29.9 W 5 8 1014.0 - 0.0 - - - - - - -
22/11:30am 29.5 W 5 7 1014.4 - 0.0 - - - - - - -
22/11:00am 28.7 W 4 7 1014.7 - 0.0 - - - - - - -
22/10:30am 28.6 WSW 4 6 1015.2 - 0.0 - - - - - - -
22/10:00am 29.1 W 3 5 1015.5 - 0.0 - - - - - - -
22/09:30am 28.4 WSW 2 4 1015.6 - 0.0 - - - - - - -
22/09:00am 27.9 WSW 1 3 1015.4 - 0.0 - - - - - - -
22/08:30am 27.6 S 1 2 1015.1 - 0.0 - - - - - - -
22/08:00am 27.0 CALM 0 2 1014.7 - 0.0 - - - - - - -
22/07:30am 24.7 WSW 1 2 1014.3 - 0.0 - - - - - - -
22/07:00am 22.2 CALM 0 2 1013.8 - 0.0 - - - - - - -
22/06:30am 21.9 NW 1 2 1013.5 - 0.0 - - - - - - -
22/06:00am 22.4 CALM 0 0 1013.3 - 0.0 - - - - - - -
22/05:30am 22.8 CALM 0 0 1013.1 - 0.0 - - - - - - -
22/05:00am 23.0 CALM 0 0 1013.0 - 0.0 - - - - - - -
22/04:30am 23.2 CALM 0 0 1012.7 - 0.0 - - - - - - -
22/04:00am 23.7 CALM 0 2 1012.3 - 0.0 - - - - - - -
22/03:30am 24.8 NNW 2 4 1012.2 - 0.0 - - - - - - -
22/03:00am 25.2 NNW 2 4 1012.1 - 0.0 - - - - - - -
22/02:30am 25.3 NNW 3 5 1012.2 - 0.0 - - - - - - -
22/02:00am 24.9 N 2 4 1012.4 - 0.0 - - - - - - -
22/01:30am 24.2 N 2 3 1012.7 - 0.0 - - - - - - -
22/01:00am 24.5 NNW 2 4 1013.0 - 0.0 - - - - - - -
22/12:30am 25.5 NNW 1 2 1013.2 - 0.0 - - - - - - -
22/12:00am 26.1 NNW 2 4 1013.4 - 0.0 - - - - - - -
 
Date/Time
CST
Temp

°C
Wind Pressure Rain
since 9am
mm
Weather Cloud Vis
km
Sea
Height
m
Swell
Dir
 
Speed
knots
Gust
knots
hPa Trend Height
m
Period
s
Dir
21/11:30pm 26.6 WNW 2 5 1013.6 - 0.0 - - - - - - -
21/11:00pm 26.8 W 4 6 1013.4 - 0.0 - - - - - - -
21/10:30pm 26.9 W 6 9 1013.8 - 0.0 - - - - - - -
21/10:00pm 27.2 W 6 10 1013.7 - 0.0 - - - - - - -
21/09:30pm 27.1 W 6 12 1013.5 - 0.0 - - - - - - -
21/09:00pm 27.2 W 5 10 1013.3 - 0.0 - - - - - - -
21/08:30pm 27.2 WNW 5 9 1013.1 - 0.0 - - - - - - -
21/08:00pm 27.2 W 4 7 1012.7 - 0.0 - - - - - - -
21/07:30pm 27.3 W 4 7 1012.4 - 0.0 - - - - - - -
21/07:00pm 27.5 W 6 10 1011.9 - 0.0 - - - - - - -
21/06:30pm 27.9 W 7 12 1011.7 - 0.0 - - - - - - -
21/06:00pm 28.4 W 7 11 1011.4 - 0.0 - - - - - - -
21/05:30pm 28.8 W 5 10 1011.1 - 0.0 - - - - - - -
21/05:00pm 29.4 W 6 12 1011.0 - 0.0 - - - - - - -
21/04:30pm 29.9 W 7 12 1011.0 - 0.0 - - - - - - -
21/04:00pm 30.2 W 7 13 1011.1 - 0.0 - - - - - - -
21/03:30pm 30.1 W 8 13 1011.2 - 0.0 - - - - - - -
21/03:00pm 30.4 W 7 11 1011.4 - 0.0 - - - - - - -
21/02:30pm 30.1 W 8 11 1011.5 - 0.0 - - - - - - -
21/02:00pm 30.2 W 8 12 1011.8 - 0.0 - - - - - - -
21/01:30pm 30.6 W 6 10 1012.2 - 0.0 - - - - - - -
21/01:00pm 30.1 W 7 10 1012.7 - 0.0 - - - - - - -
21/12:30pm 29.9 W 6 10 1013.4 - 0.0 - - - - - - -
21/12:00pm 29.6 W 6 9 1013.9 - 0.0 - - - - - - -
21/11:30am 29.1 WSW 6 8 1014.6 - 0.0 - - - - - - -
21/11:00am 28.8 W 6 8 1014.9 - 0.0 - - - - - - -
21/10:30am 29.3 WSW 4 7 1015.2 - 0.0 - - - - - - -
21/10:00am 29.1 WSW 4 6 1015.3 - 0.0 - - - - - - -
21/09:30am 28.6 SW 4 5 1015.0 - 0.0 - - - - - - -
21/09:00am 28.3 SW 2 5 1014.8 - 0.0 - - - - - - -
21/08:30am 27.3 S 2 4 1014.6 - 0.0 - - - - - - -
21/08:00am 27.4 SSW 3 5 1014.5 - 0.0 - - - - - - -
21/07:30am 26.0 SW 1 3 1014.2 - 0.0 - - - - - - -
21/07:00am 23.4 W 2 4 1013.7 - 0.0 - - - - - - -
21/06:30am 23.3 W 2 4 1013.5 - 0.0 - - - - - - -
21/06:00am 22.6 WNW 2 3 1013.3 - 0.0 - - - - - - -
21/05:30am 22.6 WNW 2 3 1013.1 - 0.0 - - - - - - -
21/05:00am 23.1 NW 1 3 1012.7 - 0.0 - - - - - - -
21/04:30am 24.2 NW 2 5 1012.5 - 0.0 - - - - - - -
21/04:00am 25.5 NW 2 5 1012.5 - 0.0 - - - - - - -
21/03:30am 25.4 WNW 2 4 1012.3 - 0.0 - - - - - - -
21/03:00am 24.5 NW 3 5 1012.2 - 0.0 - - - - - - -
21/02:30am 22.0 CALM 0 2 1012.5 - 0.0 - - - - - - -
21/02:00am 21.7 CALM 0 0 1012.8 - 0.0 - - - - - - -
21/01:30am 22.1 CALM 0 0 1013.1 - 0.0 - - - - - - -
21/01:00am 22.3 CALM 0 0 1013.4 - 0.0 - - - - - - -
21/12:30am 22.9 SSE 1 2 1013.7 - 0.0 - - - - - - -
21/12:00am 23.2 CALM 0 0 1013.8 - 0.0 - - - - - - -
 
Date/Time
CST
Temp

°C
Wind Pressure Rain
since 9am
mm
Weather Cloud Vis
km
Sea
Height
m
Swell
Dir
 
Speed
knots
Gust
knots
hPa Trend Height
m
Period
s
Dir
20/11:30pm 24.4 SSE 1 3 1013.9 - 0.0 - - - - - - -
20/11:00pm 25.7 S 1 2 1013.7 - 0.0 - - - - - - -
20/10:30pm 26.6 W 1 3 1013.4 - 0.0 - - - - - - -
20/10:00pm 27.0 NW 3 6 1013.3 - 0.0 - - - - - - -
20/09:30pm 25.8 NW 3 5 1013.2 - 0.0 - - - - - - -
20/09:00pm 22.7 CALM 0 1 1012.8 - 0.0 - - - - - - -
20/08:30pm 22.4 E 1 2 1012.5 - 0.0 - - - - - - -
20/08:00pm 24.1 SE 1 2 1012.0 - 0.0 - - - - - - -
20/07:30pm 24.9 CALM 0 0 1011.5 - 0.0 - - - - - - -
20/07:00pm 26.7 W 1 2 1011.2 - 0.0 - - - - - - -
20/06:30pm 28.1 NW 2 4 1010.9 - 0.0 - - - - - - -
20/06:00pm 29.0 NW 3 5 1010.5 - 0.0 - - - - - - -
20/05:30pm 29.6 NW 4 7 1010.2 - 0.0 - - - - - - -
20/05:00pm 30.1 NW 4 6 1010.0 - 0.0 - - - - - - -
20/04:30pm 30.7 WNW 5 9 1010.1 - 0.0 - - - - - - -
20/04:00pm 30.7 WNW 5 8 1010.2 - 0.0 - - - - - - -
20/03:30pm 30.3 WNW 6 10 1010.2 - 0.0 - - - - - - -
20/03:00pm 31.0 W 5 9 1010.7 - 0.0 - - - - - - -
20/02:30pm 30.9 WNW 6 10 1011.2 - 0.0 - - - - - - -
20/02:00pm 30.6 WNW 6 9 1011.4 - 0.0 - - - - - - -
20/01:30pm 30.3 NW 6 10 1012.1 - 0.0 - - - - - - -
20/01:00pm 30.7 NW 7 11 1012.7 - 0.0 - - - - - - -
20/12:30pm 30.3 WNW 6 11 1013.4 - 0.0 - - - - - - -
20/12:00pm 30.8 WNW 6 8 1013.9 - 0.0 - - - - - - -
20/11:30am 30.2 WNW 5 8 1014.6 - 0.0 - - - - - - -
20/11:00am 30.0 W 5 7 1015.0 - 0.0 - - - - - - -
20/10:30am 29.6 WNW 4 6 1015.4 - 0.0 - - - - - - -
20/10:00am 28.8 WSW 3 5 1015.5 - 0.0 - - - - - - -
20/09:30am 28.8 WSW 3 5 1015.3 - 0.0 - - - - - - -
20/09:00am 29.2 ENE 1 3 1015.0 - 0.0 - - - - - - -
20/08:30am 28.5 ENE 2 3 1014.8 - 0.0 - - - - - - -
20/08:00am 26.6 CALM 0 0 1014.6 - 0.0 - - - - - - -
20/07:30am 22.1 CALM 0 0 1014.2 - 0.0 - - - - - - -
20/07:00am 19.9 CALM 0 0 1013.7 - 0.0 - - - - - - -
20/06:30am 20.4 CALM 0 1 1013.3 - 0.0 - - - - - - -
20/06:00am 20.4 NNW 2 3 1013.0 - 0.0 - - - - - - -
20/05:30am 20.2 NNW 2 3 1012.8 - 0.0 - - - - - - -
20/05:00am 20.5 NNW 2 2 1012.8 - 0.0 - - - - - - -
20/04:30am 20.5 NNW 1 2 1012.8 - 0.0 - - - - - - -
20/04:00am 20.9 NNW 1 2 1012.8 - 0.0 - - - - - - -
20/03:30am 21.1 CALM 0 0 1013.0 - 0.0 - - - - - - -
20/03:00am 21.9 CALM 0 0 1013.3 - 0.0 - - - - - - -
20/02:30am 22.0 NE 1 2 1013.5 - 0.0 - - - - - - -
20/02:00am 21.8 ENE 2 2 1013.8 - 0.0 - - - - - - -
20/01:30am 21.7 E 1 1 1014.1 - 0.0 - - - - - - -
20/01:00am 22.0 ENE 1 2 1014.4 - 0.0 - - - - - - -
20/12:30am 22.3 E 1 3 1014.7 - 0.0 - - - - - - -
20/12:00am 23.6 CALM 0 0 1014.8 - 0.0 - - - - - - -

Other Formats:

Comma delimited format used in spreadsheet applications
http://www.bom.gov.au/fwo/IDD60701/IDD60701.94116.axf

JavaScript Object Notation format (JSON) in row-major order
http://www.bom.gov.au/fwo/IDD60701/IDD60701.94116.json